Bookmark and Share
Track history (hours):
 

Borja

Last reported at 2014-Apr-19 16:28 UTC. Time now 2014-Apr-21 07:34 UTC.
Position N 50°25' W 002°08'.

Length 186 m; draft 6.2 m.

Type: Ship. MMSI: 247196400.

NotesDate/timePositionNaut miles runAvg speedWind from/ knotsBaromVisibWave heightAir tempDewpointWater temp
2014-Apr-19 16:28N 50°25' W 002°08'1718.3
2014-Apr-19 15:33N 50°39' W 001°55'4 3.9
2014-Apr-19 14:31N 50°42' W 001°59'0 0.0
2014-Apr-19 13:28N 50°42' W 001°59'0 0.0
2014-Apr-19 12:31N 50°42' W 001°59'0 0.1
2014-Apr-19 11:33N 50°42' W 001°60'1010.1
2014-Apr-19 10:33N 50°33' W 001°55'42119.1
2014-Apr-18 12:29N 44°00' W 005°39'2021.8
2014-Apr-18 11:33N 43°40' W 005°40'7 5.2
2014-Apr-18 10:16N 43°33' W 005°41'0 0.0
2014-Apr-18 00:04N 43°33' W 005°41'0 0.0
2014-Apr-17 18:28N 43°33' W 005°41'0 0.5
2014-Apr-17 17:32N 43°34' W 005°42'0 0.0
2014-Apr-17 16:20N 43°34' W 005°42'0 0.0
2014-Apr-17 15:32N 43°34' W 005°42'0 0.0
2014-Apr-17 14:32N 43°34' W 005°42'0 0.0
2014-Apr-17 13:32N 43°34' W 005°42'0 0.0
2014-Apr-17 12:26N 43°34' W 005°42'0 0.0
2014-Apr-17 11:26N 43°34' W 005°42'0 0.0
2014-Apr-17 10:32N 43°34' W 005°42'0 0.0
2014-Apr-17 09:32N 43°34' W 005°42'0 0.0
2014-Apr-17 08:26N 43°34' W 005°42'0 0.0
2014-Apr-17 07:32N 43°34' W 005°42'0 0.0
2014-Apr-17 06:32N 43°34' W 005°42'0 0.1
2014-Apr-17 01:32N 43°33' W 005°41'0 0.0
2014-Apr-17 00:14N 43°33' W 005°41'0 0.0
2014-Apr-16 22:20N 43°33' W 005°41'0 0.0
2014-Apr-16 17:34N 43°33' W 005°41'1212.2
2014-Apr-16 16:33N 43°46' W 005°40'2017.4
2014-Apr-16 15:25N 44°06' W 005°39'39919.7
2014-Apr-15 19:11N 50°21' W 002°20'1320.4
2014-Apr-15 18:33N 50°27' W 002°02'1413.9
2014-Apr-15 17:33N 50°41' W 001°57'3 2.5
2014-Apr-15 16:33N 50°42' W 001°59'0 0.0
2014-Apr-15 15:24N 50°42' W 001°59'0 0.0
2014-Apr-15 10:34N 50°42' W 001°59'1 1.2
2014-Apr-15 09:34N 50°42' W 001°58'4 3.8
2014-Apr-15 08:32N 50°39' W 001°53'0 0.1
2014-Apr-15 07:32N 50°39' W 001°53'0 0.0
2014-Apr-15 05:32N 50°39' W 001°53'0 0.0
2014-Apr-15 03:32N 50°39' W 001°53'0 0.0
2014-Apr-15 02:32N 50°39' W 001°53'2 1.9
2014-Apr-15 01:34N 50°38' W 001°52'5 5.3
2014-Apr-15 00:34N 50°42' W 001°57'2 1.5
2014-Apr-14 23:33N 50°42' W 001°59'0 0.0
2014-Apr-14 22:33N 50°42' W 001°59'0 0.1
2014-Apr-14 21:34N 50°42' W 001°59'8 7.7
2014-Apr-14 20:34N 50°36' W 001°53'1211.6
2014-Apr-14 19:34N 50°24' W 001°55'1111.3
2014-Apr-14 18:33N 50°23' W 002°12'13 0.3
2014-Apr-12 18:33N 50°17' W 002°30'1818.5
2014-Apr-12 17:33N 50°26' W 002°05'1515.3
2014-Apr-12 16:33N 50°40' W 001°56'3 3.4
2014-Apr-12 15:32N 50°42' W 001°59'0 0.0
2014-Apr-12 14:32N 50°42' W 001°59'0 0.0
2014-Apr-12 13:32N 50°42' W 001°59'0 0.0
2014-Apr-12 12:33N 50°42' W 001°59'8 7.9
2014-Apr-12 11:33N 50°35' W 001°55'1917.8
2014-Apr-12 10:30N 50°22' W 002°16'40919.2
2014-Apr-11 13:11N 43°57' W 005°39'1320.5
2014-Apr-11 12:33N 43°44' W 005°40'11 1.1
2014-Apr-11 02:33N 43°33' W 005°41'0 0.0
2014-Apr-11 01:21N 43°33' W 005°41'0 0.0
2014-Apr-11 00:33N 43°33' W 005°41'0 0.0
2014-Apr-10 23:03N 43°33' W 005°41'0 0.0
2014-Apr-10 22:27N 43°33' W 005°41'0 0.0
2014-Apr-10 21:27N 43°33' W 005°41'0 0.0
2014-Apr-09 23:33N 43°33' W 005°41'0 0.0
2014-Apr-09 18:32N 43°33' W 005°41'0 0.1
2014-Apr-09 17:33N 43°33' W 005°41'1413.3
2014-Apr-09 16:31N 43°47' W 005°40'  

Dump ship's entire track history

sailing weather and tide predictions

Borja — ICEC — position and weather